GLO1OO1 SBRJ-SBSP

Flight info

Callsign GLO1OO1
Flight time N/A
Altitude 26000
Route NAXOP UZ45 IBDAL
Aircraft B737/M-SDE2E3FGHIRWXY/LB1

Departure

Time 2026-05-01 15:05
Airport Santos Dumont Airport (SBRJ)

Arrival

Time N/A
Airport Congonhas–Deputado Freitas Nobre Airport (SBSP)
Time Latitude Longitude Altitude Speed Heading
2026-05-01 14:44 -22.91209 -43.16584 21 ft 0 kts 267°
2026-05-01 14:57 -22.91208 -43.16568 21 ft 3 kts 268°
2026-05-01 14:58 -22.91169 -43.16516 23 ft 0 kts 176°
2026-05-01 15:00 -22.91170 -43.16516 21 ft 0 kts 176°
2026-05-01 15:00 -22.91192 -43.16493 21 ft 9 kts 111°
2026-05-01 15:01 -22.91161 -43.16451 21 ft 13 kts
2026-05-01 15:01 -22.91094 -43.16464 22 ft 7 kts 326°
2026-05-01 15:01 -22.91078 -43.16528 23 ft 10 kts 310°
2026-05-01 15:01 -22.91002 -43.16544 23 ft 13 kts 354°
2026-05-01 15:02 -22.90895 -43.16551 21 ft 16 kts 355°
2026-05-01 15:02 -22.90858 -43.16553 21 ft 16 kts 360°
2026-05-01 15:02 -22.90688 -43.16549 24 ft 14 kts 357°
2026-05-01 15:02 -22.90598 -43.16558 21 ft 13 kts 357°
2026-05-01 15:03 -22.90516 -43.16555 24 ft 12 kts 27°
2026-05-01 15:03 -22.90498 -43.16483 21 ft 10 kts 90°
2026-05-01 15:03 -22.90493 -43.16409 24 ft 9 kts 87°
2026-05-01 15:03 -22.90491 -43.16342 23 ft 9 kts 104°
2026-05-01 15:04 -22.90519 -43.16315 27 ft 8 kts 165°
2026-05-01 15:04 -22.90540 -43.16313 23 ft 0 kts 177°
2026-05-01 15:04 -22.90657 -43.16308 25 ft 59 kts 178°
2026-05-01 15:04 -22.91080 -43.16280 23 ft 123 kts 176°
2026-05-01 15:05 -22.92159 -43.16231 382 ft 172 kts 174°
2026-05-01 15:05 -22.93356 -43.15756 1206 ft 201 kts 144°
2026-05-01 15:05 -22.94211 -43.14498 2043 ft 217 kts 108°
2026-05-01 15:05 -22.94853 -43.12567 3588 ft 200 kts 137°
2026-05-01 15:06 -22.96030 -43.11732 4409 ft 213 kts 147°
2026-05-01 15:06 -22.96867 -43.11158 4585 ft 234 kts 145°
2026-05-01 15:06 -22.98280 -43.10164 5193 ft 249 kts 155°
2026-05-01 15:06 -23.00002 -43.09892 5979 ft 257 kts 186°
2026-05-01 15:07 -23.01671 -43.10550 6777 ft 262 kts 213°
2026-05-01 15:07 -23.03121 -43.11764 7512 ft 264 kts 220°
2026-05-01 15:07 -23.04496 -43.13030 7925 ft 264 kts 220°
2026-05-01 15:07 -23.05841 -43.14265 8113 ft 272 kts 220°
2026-05-01 15:08 -23.07284 -43.15575 8182 ft 274 kts 219°
2026-05-01 15:08 -23.08775 -43.16882 8853 ft 276 kts 218°
2026-05-01 15:08 -23.10265 -43.18185 9696 ft 275 kts 218°
2026-05-01 15:08 -23.11762 -43.19489 10461 ft 276 kts 219°
2026-05-01 15:09 -23.13269 -43.20797 11184 ft 278 kts 219°
2026-05-01 15:09 -23.14783 -43.22115 11899 ft 280 kts 219°
2026-05-01 15:09 -23.16306 -43.23445 12558 ft 282 kts 219°
2026-05-01 15:09 -23.17853 -43.24793 13188 ft 286 kts 219°
2026-05-01 15:10 -23.19411 -43.26152 13819 ft 289 kts 220°
2026-05-01 15:10 -23.22549 -43.28887 15243 ft 287 kts 220°
2026-05-01 15:10 -23.24110 -43.30251 15889 ft 289 kts 220°
2026-05-01 15:11 -23.25683 -43.31624 16477 ft 291 kts 220°
2026-05-01 15:11 -23.28861 -43.34401 17612 ft 295 kts 221°
2026-05-01 15:11 -23.30443 -43.35784 18161 ft 296 kts 221°
2026-05-01 15:12 -23.32045 -43.37184 18663 ft 300 kts 221°
2026-05-01 15:12 -23.34308 -43.41223 18996 ft 337 kts 255°
2026-05-01 15:12 -23.34920 -43.43742 19150 ft 358 kts 256°
2026-05-01 15:13 -23.36824 -43.52247 19524 ft 409 kts 257°
2026-05-01 15:14 -23.38241 -43.58415 19876 ft 428 kts 256°
2026-05-01 15:14 -23.38976 -43.61569 20245 ft 430 kts 256°
2026-05-01 15:14 -23.40452 -43.67880 21059 ft 433 kts 256°
2026-05-01 15:15 -23.41942 -43.74268 21744 ft 437 kts 256°
2026-05-01 15:15 -23.43432 -43.80675 22353 ft 441 kts 256°
2026-05-01 15:16 -23.44941 -43.87174 22972 ft 443 kts 256°
2026-05-01 15:16 -23.46455 -43.93713 23504 ft 447 kts 257°
2026-05-01 15:17 -23.47974 -44.00318 23965 ft 450 kts 257°
2026-05-01 15:18 -23.50261 -44.10284 24611 ft 454 kts 257°
2026-05-01 15:18 -23.51018 -44.13588 24845 ft 455 kts 257°
2026-05-01 15:19 -23.53315 -44.23600 25767 ft 450 kts 257°
2026-05-01 15:19 -23.54832 -44.30217 26189 ft 451 kts 257°
2026-05-01 15:19 -23.55593 -44.33543 26194 ft 453 kts 257°
2026-05-01 15:20 -23.57109 -44.40184 26209 ft 456 kts 257°
2026-05-01 15:20 -23.57878 -44.43555 26208 ft 458 kts 257°
2026-05-01 15:20 -23.58647 -44.46930 26204 ft 460 kts 257°
2026-05-01 15:21 -23.59417 -44.50316 26186 ft 461 kts 257°
2026-05-01 15:21 -23.60189 -44.53713 26179 ft 462 kts 257°
2026-05-01 15:21 -23.60963 -44.57121 26184 ft 463 kts 257°
2026-05-01 15:21 -23.61704 -44.60390 26180 ft 463 kts 257°
2026-05-01 15:22 -23.63249 -44.67212 26176 ft 464 kts 257°
2026-05-01 15:22 -23.64017 -44.70608 26174 ft 463 kts 257°
2026-05-01 15:22 -23.64762 -44.73909 26164 ft 463 kts 257°
2026-05-01 15:23 -23.65532 -44.77322 26163 ft 463 kts 257°
2026-05-01 15:23 -23.66300 -44.80728 26165 ft 462 kts 257°
2026-05-01 15:23 -23.67068 -44.84143 26165 ft 462 kts 257°
2026-05-01 15:23 -23.67833 -44.87544 26178 ft 462 kts 257°
2026-05-01 15:24 -23.68599 -44.90951 26163 ft 462 kts 257°
2026-05-01 15:24 -23.69363 -44.94358 26163 ft 461 kts 257°
2026-05-01 15:24 -23.70127 -44.97764 26164 ft 461 kts 257°
2026-05-01 15:24 -23.70878 -45.01117 26166 ft 461 kts 257°
2026-05-01 15:25 -23.71637 -45.04514 26167 ft 461 kts 257°
2026-05-01 15:25 -23.72394 -45.07902 26169 ft 461 kts 257°
2026-05-01 15:25 -23.73152 -45.11299 26164 ft 461 kts 257°
2026-05-01 15:25 -23.73909 -45.14698 26165 ft 461 kts 257°
2026-05-01 15:26 -23.74666 -45.18095 26168 ft 461 kts 257°
2026-05-01 15:26 -23.75422 -45.21492 26160 ft 460 kts 257°
2026-05-01 15:26 -23.76157 -45.24799 26178 ft 460 kts 257°
2026-05-01 15:26 -23.76913 -45.28197 26177 ft 461 kts 257°
2026-05-01 15:27 -23.77670 -45.31593 26167 ft 461 kts 257°
2026-05-01 15:27 -23.78427 -45.34995 26181 ft 461 kts 257°
2026-05-01 15:27 -23.79182 -45.38398 26166 ft 461 kts 257°
2026-05-01 15:28 -23.80189 -45.45291 26188 ft 460 kts 266°
2026-05-01 15:28 -23.80346 -45.48783 26175 ft 460 kts 268°
2026-05-01 15:28 -23.80457 -45.52275 26184 ft 460 kts 268°
2026-05-01 15:29 -23.80703 -45.59265 26181 ft 460 kts 268°
2026-05-01 15:29 -23.80854 -45.62709 26169 ft 460 kts 267°
2026-05-01 15:29 -23.81196 -45.69682 26172 ft 460 kts 267°
2026-05-01 15:30 -23.81552 -45.76658 26163 ft 460 kts 267°
2026-05-01 15:31 -23.82247 -45.90578 26162 ft 458 kts 267°
2026-05-01 15:31 -23.82593 -45.97517 26134 ft 459 kts 267°
2026-05-01 15:32 -23.82931 -46.04555 24084 ft 459 kts 268°
2026-05-01 15:32 -23.83258 -46.11408 22204 ft 445 kts 268°
2026-05-01 15:33 -23.83731 -46.21345 19358 ft 428 kts 267°
2026-05-01 15:34 -23.84183 -46.30864 16469 ft 402 kts 267°